Location: Bishop�s Knoyle
(51.0728°N, 2.1714°W)
Time: 13:07:41
(UTC+00:00)

COSMO-SKYMED 1 - Pass Details

Date: 18 September 2020
Orbit: 621 x 623 km, 97.9° (Epoch: 26 October)

Event Time Altitude Azimuth Distance (km) Brightness Sun altitude
Rises 19:07:17 0° 8° (N) 2,919 6.1 -8.9°
Reaches altitude 10° 19:09:35 10° 1° (N) 2,007 5.4 -9.3°
Maximum altitude 19:13:38 39° 293° (WNW) 944 4.2 -9.9°
Drops below altitude 10° 19:17:40 10° 225° (SW) 1,991 5.6 -10.5°
Sets 19:19:56 0° 217° (SW) 2,893 6.3 -10.9°
